Location: Izdebno
(52.6670°N, 16.2170°E)
Time: 18:57:03
(UTC+01:00)

Transit 2A - Pass Details

Date: 04 February 2023
Orbit: 591 x 964 km, 66.7° (Epoch: 21 March)

Event Time Altitude Azimuth Distance (km) Brightness Sun altitude
Rises 16:49:34 0° 201° (SSW) 3,010 9.9 -1.3°
Reaches altitude 10° 16:51:48 10° 196° (SSW) 2,149 9.0 -1.6°
Maximum altitude 16:56:33 53° 121° (ESE) 916 6.3 -2.3°
Drops below altitude 10° 17:01:53 10° 45° (NE) 2,406 8.0 -3.0°
Enters shadow 17:04:19 - 42° (NE) 3,330 8.7 -3.4°
Sets 17:04:31 0° 41° (NE) 3,404 - -3.4°
